FW2172 Numazu JP current weather conditions

sailwx.info

Wind from 247 at 4 knots gusting 3

Air temperature 31.7° C

Last reported at 2020-Sep-19 03:10 UTC.
Time now 2020-Sep-19 03:34 UTC

Location: N 35°06' E 138°52'.
View on Google Maps.

See reports from other nearby stations

  
Tides and Currents Weather Stations Pressure Air Temp Water Temp Dewpoint Dewpoint Depression Visibility Wind Speed Wind Dir Waves Ship Positions
date/time (UTC)wind fromknots sea level pressurealtimeterstation pressurevisibilityair tempwater tempwave heightnotes
2020-Sep-19 03:10 247 4 gusting 3 31.7
2020-Sep-19 03:05 247 3 gusting 1 31.7
2020-Sep-19 02:55 292 3 gusting 4 31.7
2020-Sep-19 02:50 247 4 gusting 5 31.7
2020-Sep-19 02:40 270 4 gusting 7 32.2
2020-Sep-19 02:35 270 6 gusting 6 31.7
2020-Sep-19 02:25 270 6 gusting 6 32.2
2020-Sep-19 02:20 247 3 gusting 4 32.8
2020-Sep-19 02:15 270 2 gusting 0 32.8
2020-Sep-19 02:05 270 3 gusting 1 33.9
2020-Sep-19 02:00 315 0 33.9
2020-Sep-19 01:55 247 0 33.3
2020-Sep-19 01:50 225 0 33.3
2020-Sep-19 01:45 315 0 33.9
2020-Sep-19 01:40 33.9
2020-Sep-19 01:35 022 33.3
2020-Sep-19 01:25 33.3
2020-Sep-19 01:20 270 33.3
2020-Sep-19 01:10 292 1 gusting 3 32.2
2020-Sep-19 01:05 225 2 gusting 3 32.2
2020-Sep-19 00:55 270 2 gusting 3 31.1
2020-Sep-19 00:45 135 5 gusting 2 30.6
2020-Sep-19 00:40 135 5 gusting 2 30.0
2020-Sep-19 00:35 225 3 gusting 0 30.0
2020-Sep-19 00:30 225 3 gusting 0 30.0
2020-Sep-19 00:25 225 3 gusting 0 30.0
2020-Sep-19 00:15 202 3 gusting 1 29.4
2020-Sep-19 00:10 270 5 gusting 6 28.9
2020-Sep-19 00:05 270 5 gusting 6 28.3
2020-Sep-18 23:55 270 5 gusting 6 28.9
2020-Sep-18 23:50 270 5 gusting 6 28.9
2020-Sep-18 23:40 247 5 gusting 7 29.4
2020-Sep-18 23:35 247 5 gusting 7 29.4
2020-Sep-18 23:25 247 5 gusting 7 30.0
2020-Sep-18 23:20 247 5 gusting 7 29.4
2020-Sep-18 23:15 270 6 gusting 3 29.4
2020-Sep-18 23:10 247 4 gusting 7 28.9
2020-Sep-18 23:05 270 3 gusting 3 29.4
2020-Sep-18 22:55 225 3 gusting 2 28.3
2020-Sep-18 22:50 247 4 gusting 4 28.9
2020-Sep-18 22:45 202 3 gusting 5 29.4
2020-Sep-18 22:40 270 3 gusting 6 28.9
2020-Sep-18 22:35 247 4 gusting 9 28.3
2020-Sep-18 22:25 090 27.8
2020-Sep-18 22:20 090 27.8
2020-Sep-18 22:10 090 27.8
2020-Sep-18 22:05 090 27.8
2020-Sep-18 21:55 090 27.8
2020-Sep-18 21:50 090 27.8
2020-Sep-18 21:45 090 27.8
2020-Sep-18 21:40 090 27.2
2020-Sep-18 21:30 247 4 gusting 5 27.2
2020-Sep-18 21:20 247 4 gusting 5 27.2
2020-Sep-18 21:15 247 4 gusting 5 27.2
2020-Sep-18 21:10 247 4 gusting 5 27.2
2020-Sep-18 21:05 247 4 gusting 5 27.2
2020-Sep-18 21:00 247 4 gusting 5 27.2
2020-Sep-18 20:55 247 4 gusting 5 27.2
2020-Sep-18 20:50 247 4 gusting 5 27.2
2020-Sep-18 20:45 247 4 gusting 5 27.2
2020-Sep-18 20:40 247 4 gusting 5 27.2
2020-Sep-18 20:35 247 4 gusting 5 27.2
2020-Sep-18 20:30 247 4 gusting 5 27.2
2020-Sep-18 20:20 247 4 gusting 5 27.8
2020-Sep-18 20:15 247 4 gusting 5 27.2
2020-Sep-18 20:10 247 4 gusting 5 27.8
2020-Sep-18 20:05 247 4 gusting 5 27.8
2020-Sep-18 19:55 247 4 gusting 5 27.8
2020-Sep-18 19:50 247 4 gusting 5 27.8
2020-Sep-18 19:40 247 4 gusting 5 27.8
2020-Sep-18 19:35 247 4 gusting 5 27.8
2020-Sep-18 19:30 247 4 gusting 5 27.8
2020-Sep-18 19:25 247 4 gusting 5 27.2
2020-Sep-18 19:20 247 4 gusting 5 27.8
2020-Sep-18 19:10 202 2 gusting 0 27.8
2020-Sep-18 19:05 225 2 gusting 3 27.2
2020-Sep-18 19:00 157 1 gusting 1 27.8
2020-Sep-18 18:55 157 1 gusting 1 27.8
2020-Sep-18 18:50 157 1 gusting 1 27.8
2020-Sep-18 18:45 157 1 gusting 1 27.8
2020-Sep-18 18:40 157 1 gusting 1 27.8
2020-Sep-18 18:35 157 1 gusting 1 27.8
2020-Sep-18 18:25 157 3 gusting 3 27.8
2020-Sep-18 18:20 157 3 gusting 3 27.2
2020-Sep-18 18:15 157 3 gusting 3 27.2
2020-Sep-18 18:10 157 3 gusting 3 27.2
2020-Sep-18 18:05 157 3 gusting 3 28.3
2020-Sep-18 17:55 225 1 28.3
2020-Sep-18 17:50 225 1 28.3
2020-Sep-18 17:45 225 1 28.3
2020-Sep-18 17:40 225 1 28.3
2020-Sep-18 17:35 225 1 28.3
2020-Sep-18 17:30 225 1 28.3
2020-Sep-18 17:25 225 1 28.3
2020-Sep-18 17:20 225 1 28.3
2020-Sep-18 17:10 225 1 28.3
2020-Sep-18 17:05 225 1 28.3
2020-Sep-18 16:55 180 2 gusting 2 28.3
2020-Sep-18 16:50 180 2 gusting 2 28.3
2020-Sep-18 16:45 180 2 gusting 2 28.3
2020-Sep-18 16:40 180 2 gusting 2 28.3
2020-Sep-18 16:35 180 2 gusting 2 28.3
2020-Sep-18 16:25 180 2 gusting 2 28.3
2020-Sep-18 16:20 180 2 gusting 2 28.3
2020-Sep-18 16:10 112 3 gusting 0 28.3
2020-Sep-18 16:05 112 3 gusting 0 28.3
2020-Sep-18 15:55 202 3 gusting 3 28.3
2020-Sep-18 15:50 202 3 gusting 3 28.3
2020-Sep-18 15:45 202 3 gusting 3 28.3
2020-Sep-18 15:40 202 2 gusting 1 28.3
2020-Sep-18 15:35 202 2 gusting 1 28.3
2020-Sep-18 15:30 157 6 gusting 5 28.3
2020-Sep-18 15:25 157 6 gusting 5 28.3
2020-Sep-18 15:20 157 6 gusting 5 28.3
2020-Sep-18 15:10 270 4 gusting 4 28.3
2020-Sep-18 15:05 202 4 gusting 3 28.3
2020-Sep-18 14:55 225 3 gusting 3 28.3
2020-Sep-18 14:50 225 3 gusting 0 28.3
2020-Sep-18 14:45 022 5 gusting 5 28.3
2020-Sep-18 14:40 022 5 gusting 5 28.3
2020-Sep-18 14:35 225 3 gusting 3 28.3
2020-Sep-18 14:25 270 5 gusting 2 28.3
2020-Sep-18 14:20 225 5 gusting 6 28.3
2020-Sep-18 14:10 247 3 gusting 6 28.3
2020-Sep-18 14:05 270 3 gusting 5 28.3
2020-Sep-18 13:55 225 4 gusting 4 28.3
2020-Sep-18 13:45 247 3 gusting 4 28.3
2020-Sep-18 13:40 202 4 gusting 5 28.3
2020-Sep-18 13:35 225 1 28.3
2020-Sep-18 13:30 202 3 gusting 4 28.3
2020-Sep-18 13:25 202 0 gusting 1 28.3
2020-Sep-18 13:20 247 2 gusting 0 28.3
2020-Sep-18 13:10 225 3 gusting 1 28.3
2020-Sep-18 13:05 225 0 gusting 3 28.3
2020-Sep-18 13:00 202 4 gusting 7 28.3
2020-Sep-18 12:55 202 4 gusting 7 28.3
2020-Sep-18 12:50 202 4 gusting 5 28.3
2020-Sep-18 12:45 225 5 gusting 6 28.3
2020-Sep-18 12:40 180 4 gusting 2 28.3
2020-Sep-18 12:35 202 5 gusting 10 28.3
2020-Sep-18 12:25 225 6 gusting 9 28.3
2020-Sep-18 12:20 180 7 gusting 8 28.3
2020-Sep-18 12:10 225 5 gusting 6 28.3
2020-Sep-18 12:00 225 5 gusting 5 28.3
2020-Sep-18 11:55 202 6 gusting 3 28.3
2020-Sep-18 11:45 202 5 gusting 5 28.3
2020-Sep-18 11:40 225 5 gusting 6 28.3
2020-Sep-18 11:35 315 6 gusting 9 28.3
2020-Sep-18 11:25 270 7 gusting 11 28.3
2020-Sep-18 11:20 202 6 gusting 6 28.3
2020-Sep-18 11:15 225 7 gusting 7 28.3
2020-Sep-18 11:05 202 5 gusting 6 28.3
2020-Sep-18 11:00 180 6 gusting 2 28.3
2020-Sep-18 10:55 225 5 gusting 5 28.3
2020-Sep-18 10:45 292 5 gusting 3 28.3
2020-Sep-18 10:40 180 6 gusting 5 28.3
2020-Sep-18 10:35 180 5 gusting 6 28.3
2020-Sep-18 10:30 202 6 gusting 10 28.3
2020-Sep-18 10:25 247 6 gusting 9 28.3
2020-Sep-18 10:20 180 6 gusting 5 28.3
2020-Sep-18 10:10 225 5 gusting 5 28.3
2020-Sep-18 10:00 202 4 gusting 6 28.3
2020-Sep-18 09:55 180 5 gusting 7 28.3
2020-Sep-18 09:50 202 7 gusting 6 28.3
2020-Sep-18 09:45 202 7 gusting 11 28.3
2020-Sep-18 09:35 225 6 gusting 5 28.3
2020-Sep-18 09:30 180 6 gusting 4 28.3
2020-Sep-18 09:25 022 8 gusting 11 28.3
2020-Sep-18 09:20 157 8 gusting 13 28.3
2020-Sep-18 09:15 225 9 gusting 13 30.6
2020-Sep-18 09:05 202 7 gusting 12 30.6
2020-Sep-18 08:55 135 6 gusting 6 30.6
2020-Sep-18 08:45 270 5 gusting 7 30.6
2020-Sep-18 08:40 225 9 gusting 13 30.6
2020-Sep-18 08:35 225 8 gusting 10 30.6
2020-Sep-18 08:25 247 7 gusting 17 30.6
2020-Sep-18 08:15 225 6 gusting 4 30.6
2020-Sep-18 08:10 202 7 gusting 3 30.6
2020-Sep-18 08:00 202 9 gusting 7 30.6
2020-Sep-18 07:55 225 7 gusting 6 30.6
2020-Sep-18 07:50 225 5 gusting 5 30.6
2020-Sep-18 07:40 225 6 gusting 7 30.6
2020-Sep-18 07:35 202 3 gusting 1 30.6
2020-Sep-18 07:30 270 6 gusting 5 30.6
2020-Sep-18 07:25 180 6 gusting 7 30.6
2020-Sep-18 07:20 225 6 gusting 8 30.6
2020-Sep-18 07:15 202 6 gusting 11 30.6
2020-Sep-18 07:10 225 7 gusting 13 30.6
2020-Sep-18 07:05 157 8 gusting 6 30.6
2020-Sep-18 06:55 180 5 gusting 7 30.6
2020-Sep-18 06:50 202 9 gusting 12 30.6
2020-Sep-18 06:40 202 9 gusting 12 30.6
2020-Sep-18 06:35 135 9 gusting 13 30.6
2020-Sep-18 06:25 180 6 gusting 3 30.6
2020-Sep-18 06:20 202 6 gusting 8 30.6
2020-Sep-18 06:10 202 7 gusting 11 30.6
2020-Sep-18 06:05 202 7 gusting 8 30.6
2020-Sep-18 05:55 202 11 gusting 6 30.6
2020-Sep-18 05:50 225 11 gusting 15 30.6
2020-Sep-18 05:40 247 8 gusting 7 30.6
2020-Sep-18 05:35 135 9 gusting 9 30.6
2020-Sep-18 05:25 202 10 gusting 5 30.6
2020-Sep-18 05:20 180 10 gusting 13 30.6
2020-Sep-18 05:10 225 9 gusting 12 30.6
2020-Sep-18 05:05 225 7 gusting 14 30.6
2020-Sep-18 04:55 225 9 gusting 8 30.6
2020-Sep-18 04:45 135 9 gusting 8 30.6
2020-Sep-18 04:35 180 8 gusting 13 30.6
2020-Sep-18 04:30 270 6 gusting 9 30.6
2020-Sep-18 04:25 202 7 gusting 10 30.6
2020-Sep-18 04:20 247 9 gusting 6 30.6
2020-Sep-18 04:10 225 9 gusting 9 30.6
2020-Sep-18 04:00 270 8 gusting 7 30.6
2020-Sep-18 03:55 202 6 gusting 8 30.6
2020-Sep-18 03:50 247 9 gusting 3 30.6
2020-Sep-18 03:40 180 9 gusting 9 30.6
2020-Sep-18 03:35 180 8 gusting 12 30.6
2020-Sep-18 03:25 225 8 gusting 5 30.6
2020-Sep-18 03:20 202 9 gusting 9 30.6
2020-Sep-18 03:15 135 5 gusting 3 30.6
2020-Sep-18 03:05 157 7 gusting 6 30.6
2020-Sep-18 03:00 225 5 gusting 4 30.6
2020-Sep-18 02:55 270 6 gusting 3 30.6
2020-Sep-18 02:50 157 7 gusting 11 30.6
2020-Sep-18 02:40 180 6 gusting 7 30.6
2020-Sep-18 02:35 270 6 gusting 2 30.6
2020-Sep-18 02:25 225 6 gusting 11 30.6
2020-Sep-18 02:15 247 8 gusting 9 30.6
2020-Sep-18 02:10 225 6 gusting 10 30.6
2020-Sep-18 02:05 225 9 gusting 9 30.6
2020-Sep-18 01:55 270 9 gusting 2 30.6
2020-Sep-18 01:50 180 7 gusting 7 30.6
2020-Sep-18 01:40 270 9 gusting 6 30.6
2020-Sep-18 01:35 180 8 gusting 6 30.6
2020-Sep-18 01:25 270 5 gusting 6 30.6
2020-Sep-18 01:20 225 6 gusting 10 30.6
2020-Sep-18 01:10 202 6 gusting 9 30.6
2020-Sep-18 01:00 202 4 gusting 7 30.6
2020-Sep-18 00:55 180 5 gusting 1 30.6
2020-Sep-18 00:50 157 5 gusting 9 30.6
2020-Sep-18 00:45 270 7 gusting 6 30.6
2020-Sep-18 00:40 247 6 gusting 7 30.6
2020-Sep-18 00:35 202 7 gusting 6 30.6
2020-Sep-18 00:25 225 7 gusting 11 30.6
2020-Sep-18 00:20 180 8 gusting 9 30.6
2020-Sep-18 00:15 247 7 gusting 11 30.0
2020-Sep-18 00:10 202 8 gusting 6 30.0
2020-Sep-18 00:05 225 7 gusting 8 30.0
2020-Sep-18 00:00 30.0
2020-Sep-17 23:55 202 4 gusting 2 30.0
2020-Sep-17 23:50 202 7 gusting 5 28.9
2020-Sep-17 23:40 202 3 gusting 8 28.9
2020-Sep-17 23:35 202 7 gusting 4 28.9
2020-Sep-17 23:25 270 8 gusting 7 28.9
2020-Sep-17 23:15 315 8 gusting 10 28.9
2020-Sep-17 23:05 180 9 gusting 7 28.3
2020-Sep-17 22:55 202 6 gusting 11 28.3
2020-Sep-17 22:45 202 7 gusting 11 28.3
2020-Sep-17 22:40 225 7 gusting 9 28.3
2020-Sep-17 22:35 202 5 gusting 3 28.3
2020-Sep-17 22:25 225 6 gusting 10 28.3
2020-Sep-17 22:15 202 4 gusting 5 28.3
2020-Sep-17 22:10 202 9 gusting 14 28.3
2020-Sep-17 22:05 180 8 gusting 8 28.3
2020-Sep-17 21:55 202 6 gusting 7 28.3
2020-Sep-17 21:50 157 6 gusting 6 28.3
2020-Sep-17 21:45 202 7 gusting 12 28.3
2020-Sep-17 21:40 202 6 gusting 13 28.3
2020-Sep-17 21:35 202 10 gusting 5 28.3
2020-Sep-17 21:25 202 8 gusting 7 28.3
2020-Sep-17 21:15 225 8 gusting 9 27.8
2020-Sep-17 21:10 225 8 gusting 9 27.8
2020-Sep-17 21:05 157 10 gusting 5 27.8
2020-Sep-17 21:00 202 7 gusting 9 27.8
2020-Sep-17 20:55 225 7 gusting 9 27.8
2020-Sep-17 20:45 202 9 gusting 6 27.8
2020-Sep-17 20:35 225 6 gusting 8 27.8
2020-Sep-17 20:25 180 6 gusting 6 27.8
2020-Sep-17 20:15 180 8 gusting 6 27.8
2020-Sep-17 20:10 225 3 gusting 1 27.8
2020-Sep-17 20:05 225 3 gusting 1 27.8
2020-Sep-17 19:55 157 9 gusting 4 27.8
2020-Sep-17 19:45 157 9 gusting 4 27.8
2020-Sep-17 19:35 180 6 gusting 6 27.8
2020-Sep-17 19:25 157 7 gusting 1 27.8
2020-Sep-17 19:20 157 7 gusting 1 27.8
2020-Sep-17 19:15 157 7 gusting 1 27.8
2020-Sep-17 19:05 157 7 gusting 1 27.8
2020-Sep-17 19:00 157 7 gusting 1 27.8
2020-Sep-17 18:55 157 7 gusting 4 27.8
2020-Sep-17 18:50 225 7 gusting 11 27.8
2020-Sep-17 18:45 225 7 gusting 11 27.8
2020-Sep-17 18:35 225 7 gusting 11 27.2
2020-Sep-17 18:25 225 4 gusting 2 27.2
2020-Sep-17 18:20 225 4 gusting 2 27.2
2020-Sep-17 18:10 202 6 gusting 10 27.2
2020-Sep-17 18:05 202 3 gusting 8 27.2
2020-Sep-17 17:55 225 5 gusting 0 27.2
2020-Sep-17 17:50 225 5 gusting 0 27.2
2020-Sep-17 17:40 225 5 gusting 0 27.8
2020-Sep-17 17:35 225 5 gusting 0 27.8
2020-Sep-17 17:25 157 5 gusting 9 27.8
2020-Sep-17 17:20 270 6 gusting 4 27.8
2020-Sep-17 17:10 180 5 gusting 11 27.8
2020-Sep-17 17:05 225 7 gusting 2 27.8
2020-Sep-17 16:55 202 6 gusting 9 27.8
2020-Sep-17 16:50 225 4 gusting 9 27.8
2020-Sep-17 16:40 202 6 gusting 6 27.8
2020-Sep-17 16:35 225 6 gusting 5 27.8
2020-Sep-17 16:25 202 4 gusting 5 27.8
2020-Sep-17 16:20 202 4 gusting 5 27.8
2020-Sep-17 16:15 202 4 gusting 5 27.8
2020-Sep-17 16:10 202 4 gusting 5 27.8
2020-Sep-17 16:05 202 4 gusting 5 27.8
2020-Sep-17 15:55 270 4 gusting 4 27.8
2020-Sep-17 15:50 202 4 gusting 3 27.8
2020-Sep-17 15:45 202 4 gusting 3 27.8
2020-Sep-17 15:40 202 4 gusting 3 26.7
2020-Sep-17 15:35 202 4 gusting 3 26.7
2020-Sep-17 15:25 202 4 gusting 3 26.7
2020-Sep-17 15:20 202 4 gusting 3 26.7
2020-Sep-17 15:10 202 4 gusting 3 26.7
2020-Sep-17 15:05 225 3 gusting 2 26.7
2020-Sep-17 14:55 225 3 gusting 2 26.7
2020-Sep-17 14:50 202 2 gusting 3 26.7
2020-Sep-17 14:45 202 0 28.3
2020-Sep-17 14:35 225 3 gusting 1 28.3
2020-Sep-17 14:25 225 3 gusting 5 28.3
2020-Sep-17 14:15 225 1 gusting 5 28.3
2020-Sep-17 14:10 225 3 gusting 0 28.3
2020-Sep-17 14:05 202 1 gusting 1 28.3
2020-Sep-17 14:00 180 2 gusting 2 28.3
2020-Sep-17 13:55 247 1 gusting 2 28.3
2020-Sep-17 13:45 157 3 gusting 2 28.3
2020-Sep-17 13:40 157 3 gusting 2 28.3
2020-Sep-17 13:35 202 2 gusting 6 28.3
2020-Sep-17 13:25 225 1 gusting 2 28.3
2020-Sep-17 13:20 202 2 gusting 0 28.3
2020-Sep-17 13:10 135 1 gusting 1 28.3
2020-Sep-17 13:05 157 4 gusting 5 28.3
2020-Sep-17 12:55 225 3 gusting 5 28.3
2020-Sep-17 12:50 135 4 gusting 1 28.3
2020-Sep-17 12:40 270 1 28.3
2020-Sep-17 12:30 225 3 gusting 1 28.3
2020-Sep-17 12:25 225 2 gusting 6 28.3
2020-Sep-17 12:20 225 2 gusting 6 28.3
2020-Sep-17 12:15 202 3 gusting 3 28.3
2020-Sep-17 12:05 315 4 gusting 4 28.3
2020-Sep-17 11:55 202 3 gusting 2 28.3
2020-Sep-17 11:50 180 3 gusting 5 28.3
2020-Sep-17 11:45 247 2 gusting 2 28.3
2020-Sep-17 11:40 202 3 gusting 5 28.3
2020-Sep-17 11:35 225 4 gusting 6 28.3
2020-Sep-17 11:25 202 1 28.3
2020-Sep-17 11:20 247 5 gusting 3 28.3
2020-Sep-17 11:10 180 4 gusting 3 28.3
2020-Sep-17 11:05 180 2 gusting 0 28.3
2020-Sep-17 11:00 202 4 gusting 3 28.3
2020-Sep-17 10:55 247 2 gusting 4 28.3
2020-Sep-17 10:45 202 3 gusting 3 28.3
2020-Sep-17 10:40 202 4 gusting 7 28.3
2020-Sep-17 10:35 225 3 gusting 3 28.3
2020-Sep-17 10:25 225 5 gusting 6 28.3
2020-Sep-17 10:15 180 3 gusting 2 28.3
2020-Sep-17 10:10 112 1 gusting 2 28.3
2020-Sep-17 10:05 180 2 gusting 3 28.3
2020-Sep-17 09:55 157 3 gusting 3 28.3
2020-Sep-17 09:50 135 3 gusting 2 28.3
2020-Sep-17 09:40 202 3 gusting 2 28.3
2020-Sep-17 09:35 292 1 gusting 5 28.3
2020-Sep-17 09:25 180 2 gusting 0 28.3
2020-Sep-17 09:15 135 1 gusting 1 28.3
2020-Sep-17 09:10 270 5 gusting 3 28.3
2020-Sep-17 09:05 135 4 gusting 5 28.3
2020-Sep-17 08:55 202 3 gusting 3 28.3
2020-Sep-17 08:50 180 4 gusting 0 28.3
2020-Sep-17 08:40 180 1 gusting 4 28.3
2020-Sep-17 08:35 202 2 gusting 1 28.3
2020-Sep-17 08:30 225 2 28.3
2020-Sep-17 08:25 225 3 gusting 3 28.3
2020-Sep-17 08:20 270 3 gusting 2 28.3
2020-Sep-17 08:10 180 2 gusting 1 28.3
2020-Sep-17 08:05 180 4 gusting 5 28.3
2020-Sep-17 08:00 247 2 gusting 0 30.6
2020-Sep-17 07:55 225 3 gusting 5 30.6
2020-Sep-17 07:45 337 1 gusting 2 30.6
2020-Sep-17 07:40 225 5 gusting 5 30.6
2020-Sep-17 07:35 202 3 gusting 4 30.6
2020-Sep-17 07:25 270 2 gusting 0 30.6
2020-Sep-17 07:15 270 4 gusting 6 30.6
2020-Sep-17 07:10 202 5 gusting 2 30.6
2020-Sep-17 07:05 270 3 gusting 1 30.6
2020-Sep-17 06:55 225 3 gusting 5 30.6
2020-Sep-17 06:50 270 3 gusting 5 30.6
2020-Sep-17 06:45 180 5 gusting 1 30.6
2020-Sep-17 06:40 247 2 gusting 3 30.6
2020-Sep-17 06:35 202 2 gusting 0 30.6
2020-Sep-17 06:25 247 5 gusting 6 30.6
2020-Sep-17 06:15 225 3 gusting 0 31.1
2020-Sep-17 06:10 202 3 gusting 5 31.1
2020-Sep-17 06:05 225 4 gusting 3 31.1
2020-Sep-17 05:55 270 3 gusting 2 31.1
2020-Sep-17 05:50 270 6 gusting 4 31.1
2020-Sep-17 05:40 225 1 gusting 2 31.7
2020-Sep-17 05:35 202 3 gusting 2 31.1
2020-Sep-17 05:30 247 3 gusting 5 31.1
2020-Sep-17 05:25 225 3 gusting 5 31.1
2020-Sep-17 05:15 315 3 gusting 2 30.6
2020-Sep-17 05:05 180 3 gusting 2 29.4
2020-Sep-17 04:55 225 3 gusting 4 29.4
2020-Sep-17 04:45 270 5 gusting 5 29.4
2020-Sep-17 04:40 270 4 gusting 3 29.4
2020-Sep-17 04:35 247 1 gusting 4 29.4
2020-Sep-17 04:25 225 2 gusting 2 29.4
2020-Sep-17 04:20 270 4 gusting 5 29.4
2020-Sep-17 04:15 225 3 gusting 5 30.0
2020-Sep-17 04:10 247 4 gusting 6 29.4
2020-Sep-17 04:05 225 4 gusting 3 29.4
2020-Sep-17 03:55 225 1 gusting 0 29.4
2020-Sep-17 03:50 225 1 gusting 1 29.4
2020-Sep-17 03:40 270 3 gusting 5 29.4
2020-Sep-17 03:35 247 3 gusting 5 30.0
2020-Sep-17 03:25 270 5 gusting 5 31.1
2020-Sep-17 03:20 270 3 gusting 1 31.1
2020-Sep-17 03:10 270 4 gusting 3 30.6
2020-Sep-17 03:05 292 4 gusting 1 30.0